Regional Weather Roundup
Issued by NWS

Home | Current Version | Previous Version | Graphics & Text | Print | Product List | Glossary Off
Versions: 1 2 3 4 5 6 7 8 9 10 11 12 13 14 15 16 17 18 19 20 21 22 23 24 25 26 27 28 29 30 31 32 33 34 35 36 37 38 39 40 41 42 43 44 45 46 47 48 49 50

000
ASUS43 KTOP 251508
RWRKS

WEATHER ROUNDUP FOR KANSAS
NATIONAL WEATHER SERVICE GOODLAND KS
900 AM CST TUE NOV 25 2014

NOTE:  "FAIR" INDICATES FEW OR NO CLOUDS BELOW 12,000 FEET WITH NO
SIGNIFICANT WEATHER AND/OR OBSTRUCTIONS TO VISIBILITY.

KSZ001>006-013>018-027>032-041>047-251600-
NORTHWEST KANSAS

CITY           SKY/WX    TMP DP  RH WIND       PRES   REMARKS
GOODLAND       MOSUNNY   29  17  61 SW15      30.09F WCI  18
HAYS           SUNNY     28  18  64 W6        30.17F
HILL CITY      SUNNY     27  18  69 W9        30.15F
RUSSELL        SUNNY     28  24  85 SW10      30.16F WCI  19
$$

KSZ061>065-074>080-084>089-251600-
SOUTHWEST KANSAS

CITY           SKY/WX    TMP DP  RH WIND       PRES   REMARKS
DODGE CITY     SUNNY     27  19  72 SW7       30.22S
ELKHART          N/A     31  18  59 W9          N/A
GARDEN CITY    SUNNY     46  18  32 SW6       30.19F
GREAT BEND     SUNNY     28  21  74 W9        30.21F
LIBERAL        SUNNY     27  19  74 SW7       30.26S
PRATT          SUNNY     32  27  80 W7        30.24S
$$

KSZ066>073-081>083-090>101-251600-
SOUTHEAST KANSAS

CITY           SKY/WX    TMP DP  RH WIND       PRES   REMARKS
CHANUTE        SUNNY     29  16  58 CALM      30.26R
COFFEYVILLE    SUNNY     31  18  58 CALM      30.29R
HUTCHINSON       N/A     33  23  66 SW7       30.23S
MEDICINE LODGE   N/A     35  28  75 CALM      30.25F
NEWTON         SUNNY     28  18  64 SW7       30.24S
PARSONS        SUNNY     31  20  63 NW6       30.28R
WICHITA INTL   MOSUNNY   33  23  66 SW5       30.25R
WICHITA JABRA  MOSUNNY   33  20  58 SW5       30.24S
WICHITA MCCONL SUNNY     34  18  53 SW6       30.25S
WINFIELD       CLOUDY    31  26  82 CALM      30.28S
$$

KSZ007>012-019>026-033>040-048>060-102>105-251600-
NORTHEAST KANSAS

CITY           SKY/WX    TMP DP  RH WIND       PRES   REMARKS
CONCORDIA      SUNNY     30  23  75 SW13      30.16F WCI  20
EMPORIA        SUNNY     29  17  61 W6        30.23R
LAWRENCE       SUNNY     26  15  63 W5        30.24R
MANHATTAN      SUNNY     25  17  72 SW7       30.22S
MARYSVILLE     SUNNY     25  18  74 S3        30.17F
OLATHE IND     SUNNY     27  12  53 W7        30.22R
OLATHE EXE     SUNNY     27  10  49 W8        30.20S
SALINA         SUNNY     29  20  69 SW8       30.22F
TOPEKA BILLARD SUNNY     28  14  55 VRB3      30.24R
TOPEKA FORBES  SUNNY     29  15  56 W7        30.22R
$$



USA.gov is the U.S. government's official web portal to all federal, state and local government web resources and services.